User: anonymous   Login
Location: Kalberh�ni
(46.4610°N, 7.2453°E)
Time: 20:37:36
(UTC+00:00)
Language:

Cosmos 1953 - Orbit

View from above orbital plane
View from above orbital plane
View from above satellite
View from above satellite

Ground track
Ground track

The orbit data is extracted from the following two-line orbital elements,

1 19210U 88050A   21270.55690487  .00000564  00000-0  36311-4 0  9993
2 19210  82.5170 316.2958 0012267 326.6898  33.3556 15.06393542813108
Epoch (UTC): 27 September 2021 13:21:56
Eccentricity: 0.0012267
inclination: 82.5170°
perigee height: 539 km
apogee height: 556 km
right ascension of ascending node: 316.2958°
argument of perigee: 326.6898°
revolutions per day: 15.06393542
mean anomaly at epoch: 33.3556°
orbit number at epoch: 81310

The dashed part of the orbit path shows where the satellite is in the earth's shadow,  

DLR